AFR45CR LFLL-LFPG

Flight info

Callsign AFR45CR
Flight time N/A
Altitude 30000
Route MOKIP DCT ARFOZ DCT TINIL
Aircraft A320/M-SDE3FGHIRWY/LB1

Departure

Time 2026-05-07 18:25
Airport Lyon Saint-Exupéry Airport (LFLL)

Arrival

Time N/A
Airport Charles de Gaulle International Airport (LFPG)
Time Latitude Longitude Altitude Speed Heading
2026-05-07 18:04 45.71714 5.07965 796 ft 0 kts 311°
2026-05-07 18:14 45.71700 5.07989 797 ft 4 kts 309°
2026-05-07 18:14 45.71685 5.08019 797 ft 4 kts 297°
2026-05-07 18:14 45.71678 5.08053 797 ft 4 kts 252°
2026-05-07 18:14 45.71693 5.08078 798 ft 4 kts 199°
2026-05-07 18:15 45.71704 5.08083 798 ft 1 kts 194°
2026-05-07 18:19 45.71702 5.08082 798 ft 3 kts 194°
2026-05-07 18:19 45.71628 5.08054 799 ft 12 kts 195°
2026-05-07 18:19 45.71556 5.08026 800 ft 10 kts 195°
2026-05-07 18:20 45.71490 5.08005 799 ft 9 kts 179°
2026-05-07 18:20 45.71448 5.08076 801 ft 15 kts 106°
2026-05-07 18:20 45.71422 5.08223 802 ft 15 kts 104°
2026-05-07 18:20 45.71409 5.08355 804 ft 13 kts 86°
2026-05-07 18:21 45.71415 5.08460 807 ft 8 kts 89°
2026-05-07 18:21 45.71379 5.08529 811 ft 13 kts 164°
2026-05-07 18:21 45.71300 5.08541 813 ft 11 kts 174°
2026-05-07 18:21 45.71227 5.08550 814 ft 9 kts 175°
2026-05-07 18:22 45.71171 5.08562 814 ft 8 kts 161°
2026-05-07 18:22 45.71150 5.08580 814 ft 15 kts 143°
2026-05-07 18:22 45.71083 5.08830 819 ft 16 kts 105°
2026-05-07 18:22 45.71076 5.08891 817 ft 6 kts 90°
2026-05-07 18:23 45.71076 5.08899 820 ft 0 kts 87°
2026-05-07 18:23 45.71076 5.08900 820 ft 1 kts 87°
2026-05-07 18:24 45.71081 5.08981 821 ft 12 kts 84°
2026-05-07 18:24 45.71142 5.09024 818 ft 13 kts 355°
2026-05-07 18:24 45.71290 5.09007 818 ft 46 kts 355°
2026-05-07 18:24 45.71855 5.08938 812 ft 113 kts 355°
2026-05-07 18:25 45.72821 5.08822 792 ft 163 kts 355°
2026-05-07 18:25 45.74029 5.08670 1208 ft 176 kts 356°
2026-05-07 18:25 45.75230 5.08515 2058 ft 172 kts 356°
2026-05-07 18:25 45.76455 5.08364 2591 ft 186 kts 357°
2026-05-07 18:26 45.77829 5.08203 2900 ft 209 kts 356°
2026-05-07 18:26 45.79345 5.08026 3354 ft 229 kts 356°
2026-05-07 18:26 45.80960 5.07831 4175 ft 235 kts 356°
2026-05-07 18:26 45.82621 5.07629 4852 ft 250 kts 355°
2026-05-07 18:27 45.84418 5.07409 5459 ft 265 kts 355°
2026-05-07 18:27 45.86282 5.07181 6311 ft 271 kts 354°
2026-05-07 18:27 45.88195 5.06946 6813 ft 278 kts 354°
2026-05-07 18:27 45.90132 5.06709 7294 ft 282 kts 353°
2026-05-07 18:28 45.92096 5.06468 8180 ft 285 kts 354°
2026-05-07 18:28 45.94089 5.06187 9035 ft 290 kts 352°
2026-05-07 18:28 45.96077 5.05819 9851 ft 295 kts 350°
2026-05-07 18:28 45.98149 5.05394 10382 ft 310 kts 350°
2026-05-07 18:29 46.00369 5.04925 10640 ft 334 kts 350°
2026-05-07 18:29 46.01153 5.04758 10715 ft 342 kts 350°